Location: Heisler
(52.6701°N, 112.2239°W)
Time: 16:40:06
(UTC+00:00)

N. Korean satellite - Pass Details

Date: 09 December 2021
Orbit: 446 x 492 km, 97.3° (Epoch: 16 January)

Event Time Altitude Azimuth Distance (km) Brightness Sun altitude
Rises 13:17:33 0° 9° (N) 2,468 10.1 -18.6°
Reaches altitude 10° 13:19:37 10° 5° (N) 1,588 9.1 -18.3°
Maximum altitude 13:22:55 52° 288° (WNW) 569 6.5 -17.8°
Drops below altitude 10° 13:26:12 10° 212° (SSW) 1,575 9.0 -17.3°
Sets 13:28:15 0° 207° (SSW) 2,445 10.0 -17.0°
